CW6427 Weather Reports


Display with metric or nautical units.
time (UTC)temp
F
wind
direction
speed
MPH
gust
MPH
rain 1hr
in
rain 24hr
in
rain mn
in
humidity
%
barometer
mb
20260504204902 70 200 11.0 20.0 0.00 0.00 0.00 40 1006.9
20260504203902 70 274 7.0 23.0 0.00 0.00 0.00 43 1007.2
20260504201901 70 253 2.0 13.0 0.00 0.00 0.00 41 1007.3
20260504200902 70 215 10.0 18.0 0.00 0.00 0.00 42 1007.5
20260504194901 69 223 10.0 24.0 0.00 0.00 0.00 45 1007.8
20260504193901 69 229 12.0 23.0 0.00 0.00 0.00 44 1007.8
20260504191900 68 159 9.0 19.0 0.00 0.00 0.00 46 1007.8
20260504185901 67 188 12.0 19.0 0.00 0.00 0.00 49 1008.3
20260504184900 67 171 16.0 17.0 0.00 0.00 0.00 50 1008.6
20260504183859 68 191 9.0 18.0 0.00 0.00 0.00 50 1008.8
20260504182900 67 293 8.0 20.0 0.00 0.00 0.00 50 1008.7
20260504181859 68 225 7.0 20.0 0.00 0.00 0.00 50 1008.9
20260504180859 67 219 19.0 21.0 0.00 0.00 0.00 51 1008.6
20260504175859 66 201 15.0 20.0 0.00 0.00 0.00 52 1008.8
20260504174859 66 217 11.0 20.0 0.00 0.00 0.00 52 1008.7
20260504173859 66 235 11.0 21.0 0.00 0.00 0.00 52 1008.8
20260504171858 65 282 10.0 22.0 0.00 0.00 0.00 54 1008.9
20260504150856 60 186 12.0 21.0 0.00 0.00 0.00 59 1009.9
20260504081849 46 193 7.0 9.0 0.00 0.00 0.00 67 1010.8
20260504045845 50 189 6.0 10.0 0.00 0.00 0.00 63 1011.1
20260504043845 50 188 5.0 9.0 0.00 0.00 0.00 64 1011.1
20260504042845 51 159 7.0 9.0 0.00 0.00 0.00 62 1011.4
20260504041845 51 173 8.0 10.0 0.00 0.00 0.00 62 1011.3
20260504040845 51 173 5.0 9.0 0.00 0.00 0.00 62 1011.4
20260504035844 51 162 4.0 11.0 0.00 0.00 0.00 61 1011.4
20260504034844 51 169 4.0 14.0 0.00 0.00 0.00 60 1011.5
20260504033844 51 175 8.0 11.0 0.00 0.00 0.00 62 1011.5
20260504032844 51 158 6.0 10.0 0.00 0.00 0.00 62 1011.5
20260504031844 51 161 5.0 10.0 0.00 0.00 0.00 63 1011.6
20260504025844 50 186 9.0 11.0 0.00 0.00 0.00 65 1011.7
20260504024843 50 152 5.0 11.0 0.00 0.00 0.00 65 1011.8
20260504023843 50 196 5.0 9.0 0.00 0.00 0.00 67 1011.8
20260504022843 49 127 2.0 10.0 0.00 0.00 0.00 68 1012.0
20260504021843 49 313 4.0 15.0 0.00 0.00 0.00 68 1012.3
20260504015843 51 187 7.0 14.0 0.00 0.00 0.00 60 1012.5
20260504014842 51 301 2.0 11.0 0.00 0.00 0.00 59 1012.1
20260504013842 51 227 2.0 10.0 0.00 0.00 0.00 60 1012.1
20260504010912 50 125 2.0 9.0 0.00 0.00 0.00 66 1012.1
20260504005842 49 167 6.0 8.0 0.00 0.00 0.00 66 1011.7
20260504004842 48 167 1.0 4.0 0.00 0.00 0.00 74 1011.6
20260504003841 48 165 2.0 5.0 0.00 0.00 0.00 73 1011.4
20260504000911 49 172 7.0 8.0 0.00 0.00 0.00 68 1011.6
20260503235841 49 213 5.0 11.0 0.00 0.00 0.00 67 1011.9
20260503234841 49 234 11.0 16.0 0.00 0.00 0.00 66 1011.9
20260503233840 50 223 5.0 26.0 0.00 0.00 0.00 64 1012.2
20260503232910 51 273 8.0 11.0 0.00 0.00 0.00 56 1011.9
20260503231840 51 355 3.0 5.0 0.00 0.00 0.00 54 1011.6
20260503230839 52 259 1.0 5.0 0.00 0.00 0.00 55 1011.4
20260503225840 52 263 2.0 7.0 0.00 0.00 0.00 54 1011.1
20260503224840 52 217 0.0 6.0 0.00 0.00 0.00 54 1011.1
20260503223909 52 199 3.0 5.0 0.00 0.00 0.00 55 1011.1
20260503222839 52 211 2.0 11.0 0.00 0.00 0.00 53 1011.1
20260503221839 52 182 6.0 9.0 0.00 0.00 0.00 53 1011.1
20260503220908 52 338 0.0 11.0 0.00 0.00 0.00 54 1011.2
20260503215908 52 344 4.0 13.0 0.00 0.00 0.00 54 1011.3
20260503214908 52 245 2.0 15.0 0.00 0.00 0.00 53 1011.3
20260503212838 51 311 6.0 14.0 0.00 0.00 0.00 54 1011.1